Tracking 29892 objects as of 21-Nov-2024
HD Live streaming from Space Station
objects crossing your sky now

COSMOS 2143 DEB

Track COSMOS 2143 DEB now!
10-day predictions


NORAD ID: 57724
Int'l Code: 1991-033M
Perigee: 1,355.7 km
Apogee: 1,397.7 km
Inclination: 82.5 °
Period: 113.1 minutes
Semi major axis: 7747 km
RCS: Unknown
Launch date: May 16, 1991
Source: Commonwealth of Independent States (former USSR) (CIS)
Launch site: PLESETSK MISSILE AND SPACE COMPLEX (PKMTR)

Note: This is SATELLITE DEBRIS
Your satellite tracking list
Your tracking list is empty




NASA's NSSDC Master Catalog

Two Line Element Set (TLE):
1 57724U 91033M   24325.91575568  .00001032  00000-0  49343-2 0  9994
2 57724  82.5089 301.8016 0027122  62.5001 297.8848 12.73043904 62553
Source of the keplerian elements: AFSPC